Location: *
(37.4917°N, 71.5558°E)
Time: 08:56:56
(UTC+00:00)

Resurs 01 Rocket - Pass Details

Date: 09 April 2020
Orbit: 634 x 644 km, 98.0° (Epoch: 03 June)

Event Time Altitude Azimuth Distance (km) Brightness Sun altitude
Exits shadow 14:25:03 - 83° (E) 2,118 3.7 -8.8°
Reaches altitude 10° 14:26:03 10° 70° (ENE) 2,024 3.7 -8.9°
Maximum altitude 14:26:37 10° 63° (ENE) 2,011 3.8 -9.0°
Drops below altitude 10° 14:27:10 10° 56° (NE) 2,026 3.8 -9.2°
Sets 14:31:35 0° 14° (NNE) 2,944 5.1 -10.0°
